This is the latest recevied weather packets stored in our database for station/object KD9JJA. If no packets are shown the sender has not sent any weather packets the latest 10 day(s).
| Time | Temp. | Humidity | Pressure | Rain* | Wind** | Luminosity | Snow |
|---|---|---|---|---|---|---|---|
| 1777839029 | 16.67° C | 49% | 1016.2 hPa | 0 mm | - | 155 W/m² | - |
| 1777838725 | 16.67° C | 51% | 1016.2 hPa | 0 mm | - | 168 W/m² | - |
| 1777838421 | 17.22° C | 53% | 1016.2 hPa | 0 mm | - | 199 W/m² | - |
| 1777838118 | 16.67° C | 55% | 1016.5 hPa | 0 mm | - | 186 W/m² | - |
| 1777837809 | 16.67° C | 53% | 1016.6 hPa | 0 mm | - | 156 W/m² | - |
| 1777837506 | 16.67° C | 50% | 1016.5 hPa | 0 mm | - | 420 W/m² | - |
| 1777836557 | 16.67° C | 50% | 1016.7 hPa | 0 mm | - | 407 W/m² | - |
| 1777836254 | 16.67° C | 50% | 1016.7 hPa | 0 mm | - | 407 W/m² | - |
| 1777835950 | 16.67° C | 48% | 1017.1 hPa | 0 mm | - | 300 W/m² | - |
| 1777835648 | 16.67° C | 49% | 1017 hPa | 0 mm | - | 331 W/m² | - |
| 1777835343 | 16.67° C | 48% | 1016.9 hPa | 0 mm | - | 192 W/m² | - |
| 1777835041 | 16.67° C | 51% | 1017 hPa | 0 mm | - | 170 W/m² | - |
| 1777834737 | 16.11° C | 50% | 1017.1 hPa | 0 mm | - | 185 W/m² | - |
| 1777834434 | 16.67° C | 50% | 1017.4 hPa | 0 mm | - | 167 W/m² | - |
| 1777834133 | 16.11° C | 54% | 1017.5 hPa | 0 mm | - | 88 W/m² | - |
| 1777833830 | 16.11° C | 49% | 1017.5 hPa | 0 mm | - | 192 W/m² | - |
| 1777833526 | 16.11° C | 49% | 1017.1 hPa | 0 mm | - | 129 W/m² | - |
| 1777833223 | 15.56° C | 49% | 1017.8 hPa | 0 mm | - | 125 W/m² | - |
| 1777832921 | 16.11° C | 47% | 1018.1 hPa | 0 mm | - | 351 W/m² | - |
| 1777832619 | 16.11° C | 52% | 1017.9 hPa | 0 mm | - | 170 W/m² | - |
| 1777832316 | 15.56° C | 48% | 1018.1 hPa | 0 mm | - | 252 W/m² | - |
| 1777832013 | 15.56° C | 53% | 1018.1 hPa | 0 mm | - | 167 W/m² | - |
| 1777831710 | 16.11° C | 53% | 1018.2 hPa | 0 mm | - | 352 W/m² | - |
| 1777831408 | 15.56° C | 53% | 1018.6 hPa | 0 mm | - | 617 W/m² | - |
| 1777831104 | 15.56° C | 49% | 1018.6 hPa | 0 mm | - | 138 W/m² | - |
* Rain latest hour (hover to see other rain measurements)
** Current wind speed in m/s (hover to see current wind gust speed)